Starlink 33782

operational
NORAD ID: 64332 Int'l Des: 2025-124 Owner: SPXS Country: US Constellation: starlink
LEOCIRCULAR

About Starlink 33782

Description loading...

Live Position

Loading 3D Globe...

Upcoming Passes

Altitude History

Altitude vs Time

uPlot chart will show altitude changes over time

Two-Line Element Set

1 64332U 25124R 25260.36266239 .00022436 00000-0 82293-3 0 9998
2 64332 42.9993 20.4502 0001069 285.2482 74.8251 15.27557278 15277
Epoch: Sep 17, 2025 • Age: 40 hours

Current Status

Altitude 483.6 km
Velocity 7.63 km/s
Sub-Earth Point 26.58°N, 152.53°E
Launch Date Jun 10, 2025
Age 0.2 years
Type internet

Technical Details

Classification Payload
Mass 575.00 kg
Dry Mass 530.00 kg
Total Mass 575.00 kg
Length 0.30 m
Diameter 4.10 m
Span 29.00 m
Shape Box + pan
Manufacturer SPXS
Bus Type Starlink V2MO
Phase Status In Orbit
Owner/State SPXS/US

Large Constellations

Loading constellations...